EXPRESS-AM33

Last updated on Fri Sep 01 2023 01:02:38 GMT+0100 (British Summer Time)

1 32478U 08003A 23243.32988556 .00000039 00000+0 00000+0 0 9995 2 32478 2.1722 87.7979 0004948 123.0264 254.2148 1.00309766 57370
UTC large
Height (km)
Speed (km/s)
/
Latitude / Longitude
Inclination (degrees)
Orbital Period (minutes)
Azimuth
Elevation
Range (km)
Doppler Factor

Next 0 passes for location: London (51.5072 / 0.1276)

Sorry there are no passes over London.